Terug naar catalogus

ELEKTRO-L 5

ActiefWeerGEO
NORAD 67756·PAYLOAD·🇷🇺 Russia

Gelanceerd Feb 12, 2026 vanaf Baikonur Cosmodrome

Loading…

TLE

VersSource: Space-Track

Epoch: Sep 13, 2026, 19:24 UTC

1 67756U 26028A   26256.80886220 -.00000107  00000-0  00000-0 0  9993
2 67756   0.1831   8.8885 0002384 158.2688 192.8525  1.00270849  2137

Volg ELEKTRO-L 5 in realtime met AllMySat

Download on the App Store